www.pogodaiklimat.ru

Погода и климат >> Архив погоды >> Россия >> Хабаровский край >> Сектагли


ПОГОДА в Сектагли

  • Прогноз погоды в Сектагли
  • Монитор погоды в Сектагли

АРХИВ ПОГОДЫ в Сектагли

Время (UTC), дата Ветер
(напр.,м/с)
 
Видим.   Явления Облачность Т
(С)
Тd
(С)
f
(%)
Тe
(С)
Тes
(С)
Комфортность P
(гПа)
Po
(гПа)
Тmin
(С)
Tmax
(С)
R
(мм)
R24
(мм)
S
(см)
09 18.06 СЗ 1 50 км гроза без осадков 9/9 600 м
[Cb cap]
+19.2 +10.6 57 +21 +22 комфорт 1000.7 969.2 +22.5
12 18.06 штиль 0 50 км {гроза, ливн. осадки} 10/5 600 м
[Sc diur, vesp Ac und]
+14.6 +13.8 95 +14 +14 1000.2 968.2
15 18.06 Ю 1 20 км гроза, ливневой дождь 10/10 600 м
[Cb cap]
+12.5 +12.5 100 +12 +12 999.7 967.5
18 18.06 З 1 50 км {гроза, ливн. осадки} 10/10 600 м
[Cb cap]
+11.0 +11.0 100 +11 +11 998.3 966.0
21 18.06 Ю 1 10 км слаб. ливневой дождь 10/10 600 м
[Cb cap]
+12.1 +12.1 100 +12 +12 995.9 963.8 +10.1 22
00 19.06 ЮЗ 1 50 км {ливн. осадки} 8/8 600 м
[Cb cap]
+12.9 +9.7 81 +13 +16 997.0 964.9
03 19.06 З 3 50 км 8/8 600 м
[Cb cap]
+12.9 +5.5 61 +12 +15 999.5 967.3
06 19.06 В 2 50 км 9/9 600 м
[Cb cap]
+12.5 +3.8 55 +12 +13 1000.7 968.4
09 19.06 Ю 1 50 км 6/6 600 м
[Cb cap]
+13.1 +4.5 56 +13 +15 1001.3 969.0 10
12 19.06 СЗ 1 50 км в посл. час ливневой дождь 10/10 600 м
[Cb cap]
+10.0 +8.0 87 +10 +10 1003.1 970.5
15 19.06 В 1 20 км слаб. ливневой дождь 10/10 600 м
[Cb cap]
+10.9 +9.3 90 +11 +11 1003.9 971.4
18 19.06 В 3 50 км {ливн. осадки} 10/10 600 м
[Cb cap]
+11.7 +8.4 80 +10 +10 1004.7 972.2
21 19.06 В 2 50 км 9/5 600 м
[Cb cap Ac As]
+12.5 +8.1 75 +12 +12 1006.0 973.5 +9.8 2
00 20.06 В 2 50 км 8/8 600 м
[Cb cap]
+16.6 +8.3 58 +17 +19 1006.6 974.6
03 20.06 В 3 50 км 9/8 600 м
[Cb cap Ac As]
+19.0 +9.0 52 +20 +22 1007.2 975.4
06 20.06 В 1 50 км 8/4 600 м
[Sc Ac As]
+19.4 +9.0 51 +21 +26 комфорт 1007.3 975.6
09 20.06 С 1 50 км 4/0
[Ac cast Ci fib]
+22.4 +7.7 39 +23 +26 комфорт 1006.8 975.4 +22.5
12 20.06 СЗ 1 50 км 8/4 600 м
[Sc diur, vesp Ac cast]
+15.8 +10.7 72 +17 +17 1009.0 976.8
15 20.06 Ю 1 50 км 9/9 600 м
[Cb cap]
+12.9 +10.8 87 +13 +13 1010.0 977.5
18 20.06 Ю 1 50 км 10/8 600 м
[Cb cap Ac und]
+12.3 +10.3 88 +12 +12 1010.4 977.8
21 20.06 ЮВ 1 50 км 9/9 600 м
[Cb cap]
+12.2 +10.2 88 +12 +12 1011.4 978.8 +11.7
00 21.06 ЮВ 1 50 км 9/5 600 м
[Sc Ac As Cc]
+16.6 +11.3 71 +17 +21 1011.1 979.0
03 21.06 В 1 50 км 9/9 600 м
[Cb cap]
+21.6 +11.1 51 +23 +26 комфорт 1009.0 977.4
06 21.06 ЮВ 1 50 км {ливн. осадки} 10/8 600 м
[Cb cap Ci]
+21.1 +12.1 56 +23 +25 комфорт 1008.0 976.5
09 21.06 З 3 20 км гроза, ливневой дождь 10/10 600 м
[Cb cap]
+16.5 +12.5 77 +16 +16 1009.2 977.1 +22.7 1
12 21.06 Ю 1 н/о н/о +14.3 +12.8 91 +15 +15 1011.0 978.7
15 21.06 З 1 н/о н/о +12.8 +11.5 92 +13 +13 1011.6 979.0
18 21.06 штиль 0 н/о н/о +11.1 +9.9 92 +10 +10 1012.0 979.2
21 21.06 штиль 0 500 м туман ?/? +11.3 +10.1 92 +11 +11 1012.7 979.9 +10.5 3
00 22.06 ЮВ 1 50 км {туман} 5/1 600 м
[Cu hum Ci fib]
+18.2 +13.3 73 +20 +30 1012.2 980.2
03 22.06 ЮВ 1 50 км 5/3 600 м
[Cu med, cong Cc]
+24.7 +11.7 44 +26 +40 жарко 1010.1 978.9
06 22.06 Ю 2 50 км 9/9 600 м
[Cb cap]
+25.3 +10.4 39 +26 +27 жарко 1008.1 977.0
09 22.06 СЗ 3 50 км гроза, ливневой дождь 10/10 600 м
[Cb cap]
+17.2 +14.8 86 +17 +17 1009.5 977.5 +27.1 4
12 22.06 СЗ 2 н/о н/о +17.4 +14.5 83 +18 +18 1010.2 978.2
15 22.06 З 1 н/о н/о +14.9 +13.5 91 +15 +15 1010.8 978.5
18 22.06 З 2 н/о н/о +13.1 +11.7 91 +12 +12 1010.5 978.0
21 22.06 Ю 1 500 м туман ?/? +12.8 +11.6 92 +13 +13 1011.0 978.5 +12.2 0.0
00 23.06 ЮВ 1 50 км {туман} 5/3 600 м
[Cu hum Ci]
+20.0 +14.6 71 +23 +32 комфорт 1009.5 977.8
03 23.06 Ю 1 50 км 9/3 600 м
[Cu med, cong Ac As]
+25.6 +14.8 51 +28 +34 жарко 1007.5 976.8
06 23.06 ЮЗ 2 50 км 9/3 600 м
[Cu med, cong Ac cast Ci]
+28.1 +10.8 34 +29 +34 жарко 1005.9 975.2
09 23.06 ЮЗ 2 50 км 8/3 600 м
[Sc Ac lent Cc]
+26.8 +8.6 32 +27 +28 жарко 1006.0 975.1 +28.1
12 23.06 штиль 0 н/о н/о +19.3 +14.3 73 +21 +21 комфорт 1007.5 975.8
15 23.06 штиль 0 н/о н/о +17.2 +14.5 84 +17 +17 1008.0 976.1
18 23.06 Ю 1 н/о н/о +16.8 +14.2 85 +18 +18 1007.8 975.8
21 23.06 Ю 1 50 км 9/5 600 м
[Sc Ac cast Ci fib]
+17.4 +14.2 81 +18 +19 1008.0 976.1 +16.3
00 24.06 В 2 50 км 8/3 600 м
[Cu hum Ac cast Ci fib]
+23.0 +15.3 62 +27 +32 душно 1006.8 975.5
03 24.06 Ю 3 50 км 9/6 600 м
[Cb cap Ac As]
+26.1 +12.7 43 +28 +31 жарко 1004.8 973.9
06 24.06 ЮВ 1 50 км 10/10 600 м
[Cb cap]
+24.8 +14.6 53 +27 +27 жарко 1003.7 972.7
09 24.06 Ю 2 50 км 10/10 600 м
[Cb cap]
+24.4 +13.5 51 +27 +27 жарко 1002.9 971.9 +26.5
12 24.06 Ю 2 н/о н/о +23.8 +14.2 55 +26 +26 жарко 1002.4 971.3
15 24.06 Ю 3 н/о н/о +22.9 +14.8 60 +27 +27 душно 1002.2 971.0
18 24.06 З 2 н/о н/о +17.8 +14.8 83 +18 +18 1003.7 972.0
21 24.06 ЮЗ 2 50 км 10/5 600 м
[Cb cap Ci fib]
+15.2 +12.2 82 +15 +16 1005.8 973.7 +15.2
00 25.06 ЮЗ 2 50 км 10/6 600 м
[Cb cap Ci]
+16.1 +11.4 74 +16 +20 1006.5 974.4 +14.7
03 25.06 Ю 3 50 км 6/5 600 м
[Cu hum Ci fib]
+19.4 +11.6 61 +21 +28 комфорт 1006.6 974.9
06 25.06 З 1 50 км 4/3 600 м
[Cu med, cong Ci fib]
+24.1 +11.0 44 +25 +35 комфорт 1005.1 974.0

 

Местоположение метеостанции Сектагли (Хабаровский край, Россия): широта 50.43 долгота 131.00 высота над уровнем моря 273 м.

В архиве по умолчанию представлена погода в Сектагли за последнюю неделю. Архивные данные за месяц целиком и за предыдущие месяцы, начиная с января 2011 года, Вы можете получить, выбрав интересующий диапазон дат из раскрывающегося списка и нажав кнопку "Ввод!".


*Определитесь, кто Вы:
робот инопланетянин человек

Внимание! Время в таблицах - всемирное. Для получения местного времени необходимо прибавить поправку, которая равна 10 ч.

Смотрите также архив погоды в соседних городах и на ближайших метеорологических станциях:

Погода в Сутуре (Хабаровский край, Россия) (88 км)
Погода в Чекунде (Хабаровский край, Россия) (98 км)
Погода в Малиновке (Амурская область, Россия) (107 км)
Погода в Завитае (Амурская область, Россия) (119 км)
Погода в Братолюбовке (Амурская область, Россия) (126 км)
Погода в Архаре (Амурская область, Россия) (133 км)
Погода в Екатеринославке (Амурская область, Россия) (142 км)
Погода в Чегдомыне (Хабаровский край, Россия) (157 км)
Погода в Облучье (Еврейская автономная область, Россия) (159 км)
Погода в Верховье Урми (Хабаровский край, Россия) (183 км)

Пояснения к столбцам:

Ветер - указаны скорость ветра в м/с - средняя за 10 мин, порывы в срок и между сроками (в фигурных скобках) и направление, откуда дует ветер: С - северный, СВ - северо-восточный, В - восточный, ЮВ - юго-восточный, Ю - южный, ЮЗ - юго-западный, З - западный, СЗ - северо-западный.
Видимость - горизонтальная дальность видимости в метрах или километрах. При видимости от 1 до 10 км при отсутствии осадков обычно наблюдается дымка, при ухудшении видимости до 1 км и менее - туман. В сухую погоду видимость может ухудшаться дымом, пылью или мглою.
Явления - указаны атмосферные явления, наблюдавшиеся в срок или в последний час перед сроком; фигурными скобками обозначены явления, наблюдавшиеся между сроками (за 1-3 часа до срока); квадратными скобками обозначены град или гололедные отложения с указанием их диаметра в мм.
Облачность - указаны через наклонную черту общая и нижняя облачность в баллах и высота нижней границы облаков в метрах; квадратными скобками обозначены формы облаков: Ci - перистые, Cs - перисто-слоистые, Cc - перисто-кучевые, Ac - высококучевые, As - высокослоистые, Sc - слоисто-кучевые, Ns - слоисто-дождевые, Cu - кучевые, Cb - кучево-дождевые. Подробнее классификацию облаков см. в Атласе облаков (PDF).
T - Температура воздуха - температура, измеренная на высоте 2 м над землей.
Td - Температура точки росы - температура, при понижении до которой содержащийся в воздухе водяной пар достигнет насыщения.
f - Относительная влажность воздуха - влажноcть воздуха, измеренная на высоте 2 м над землей.
Te - Эффективная температура - температура, которую ощущает одетый по сезону человек в тени. Характеристика душности погоды. При расчете учитывается влияние влажности воздуха и скорости ветра на теплоощущения человека.
Tes - Эффективная температура на солнце - температура, которую ощущает человек, с поправкой на солнечный нагрев. Характеристика знойности погоды. Зависит от высоты солнца над горизонтом, облачности и скорости ветра. Ночью, в пасмурную погоду, а также при ветре 12 м/с и более поправка равна нулю.
P - Атмосферное давление - приведенное к уровню моря атмосферное давление.
Po - Атмосферное давление - измеренное на уровне метеостанции атмосферное давление.
Tmin - Минимальная температура - минимум температуры воздуха на высоте 2 м над землей.
Tmax - Максимальная температура - максимум температуры воздуха на высоте 2 м над землей.
R - Количество осадков - Количество выпавших осадков за период времени, мм. При наведении курсора мыши на число - период времени, за который выпало указанное количество осадков.
R24 - Количество осадков - Количество выпавших осадков за 24 часа, мм.
S - Снежный покров - Высота снежного покрова, см. При наведении курсора мыши на число - состояние снежного покрова и степень покрытия местности в баллах.